Theta_e
302 304 304 305 302 295 297 299 296 298 299 298 293 299 296 293 289 294 299 303 308 313 313 321 323 324 325 326 325 325 325 326 327 327 328 330 331 332 333 333 332 333 333 334 335 334 333 332 331 331 331 330 330 329 328 327 326 325 325 325 325 324 323
301 302 304 304 303 303 297 295 297 300 301 297 296 291 287 286 286 287 301 301 302 300 299 317 320 321 323 325 326 325 325 326 326 327 328 330 331 332 334 333 332 332 333 334 334 334 333 332 331 331 331 331 330 330 328 326 325 323 325 326 325 324 323
299 300 303 301 302 303 303 300 301 300 294 294 291 290 287 286 285 289 294 303 304 302 301 312 314 318 321 323 325 325 325 326 326 327 329 330 332 333 332 331 332 331 333 334 333 333 334 334 334 332 332 331 331 330 329 326 324 326 326 325 324 323 323
300 297 298 293 294 299 301 302 300 300 296 291 292 292 290 289 285 290 290 296 297 304 305 313 316 319 321 323 324 325 326 327 327 328 329 330 331 331 331 331 331 331 333 334 334 333 332 332 332 332 333 333 332 332 330 328 327 326 324 323 323 320 321
298 296 297 294 294 295 296 297 294 297 300 298 295 293 293 292 288 289 289 289 296 302 310 316 318 320 322 324 324 325 327 328 329 329 329 330 331 331 331 331 330 332 332 334 334 332 332 333 334 333 333 331 329 328 328 326 324 323 321 321 320 320 320
294 294 296 298 296 296 293 295 294 296 293 295 292 290 295 297 295 291 291 290 296 303 321 320 319 321 324 326 326 326 327 328 329 330 330 331 330 331 331 331 332 331 331 332 332 332 332 331 332 331 331 328 327 326 325 324 323 322 320 319 320 319 319
294 297 298 300 298 299 298 298 295 296 294 295 290 287 292 301 302 304 297 295 297 309 319 321 322 323 325 326 328 327 328 329 330 330 330 331 331 331 331 331 331 329 330 330 330 331 330 330 331 330 327 325 324 324 324 323 322 321 320 319 319 319 318
296 298 297 300 301 301 302 300 298 296 296 296 296 289 295 299 300 299 296 294 297 309 320 321 322 324 325 327 328 327 328 329 329 328 328 329 329 331 331 330 328 328 329 330 330 329 327 327 327 325 324 323 323 322 321 321 321 320 320 319 319 318 317
288 292 293 296 298 302 300 302 302 298 299 301 298 303 302 300 300 300 297 291 295 307 323 322 322 323 323 324 327 328 327 329 328 328 328 329 328 328 329 327 327 327 328 328 326 324 323 322 322 321 321 321 321 321 321 320 319 320 320 320 317 316 316
286 287 285 288 294 298 299 302 307 308 305 305 303 301 300 291 300 300 295 293 297 311 321 322 323 323 323 325 327 329 329 328 328 328 328 326 327 328 327 326 326 325 324 322 322 321 322 321 320 321 321 320 320 320 320 320 320 320 319 318 317 316 315
287 287 289 293 303 302 303 304 304 305 306 304 302 298 297 295 298 301 300 298 304 313 318 319 320 322 322 322 325 325 327 329 329 329 327 326 327 327 326 326 326 323 320 320 321 321 321 321 321 320 320 319 319 320 320 320 321 320 319 318 317 315 315
293 293 295 296 305 303 304 304 304 305 305 306 303 298 295 301 304 295 300 305 310 313 318 320 320 321 322 323 324 325 327 328 328 328 328 329 328 327 326 325 323 321 320 320 319 319 319 320 320 320 320 320 319 319 319 320 321 320 320 318 316 315 315
304 299 294 299 307 306 306 307 307 306 308 305 302 305 304 300 295 294 299 309 309 311 318 321 322 322 322 323 324 326 328 329 328 328 327 326 326 326 325 324 322 320 319 319 319 319 319 319 319 320 320 320 321 321 321 321 320 319 319 317 316 315 315
306 307 308 309 309 309 311 312 312 312 310 308 307 307 312 311 305 308 305 310 310 313 318 322 323 324 323 324 326 328 328 327 328 327 326 325 325 325 324 323 322 320 320 320 319 319 318 318 319 319 319 319 320 320 320 319 319 319 318 317 316 315 314
303 306 310 310 309 310 309 311 312 312 312 313 313 313 314 315 312 312 312 311 309 314 319 321 322 323 324 325 325 326 327 327 327 325 324 324 324 324 324 324 324 322 320 319 319 318 318 318 318 318 319 319 319 319 318 318 318 319 318 316 316 315 315
300 305 306 308 310 310 308 307 308 307 310 309 311 311 314 311 308 310 309 308 308 315 322 322 322 322 322 322 325 326 326 327 326 324 324 323 323 324 324 325 323 320 318 318 318 318 318 318 318 318 318 317 317 317 317 317 318 318 317 317 316 316 316
298 303 303 303 301 303 302 303 305 308 309 311 313 313 316 315 315 309 305 305 310 319 323 321 321 322 322 324 326 326 327 328 327 325 324 324 324 325 325 325 323 319 318 318 318 318 318 318 318 318 317 316 316 316 316 317 318 316 316 316 315 316 316
299 303 301 302 295 292 295 303 309 312 312 312 311 311 314 315 314 311 311 313 319 321 321 321 320 321 322 325 328 330 328 327 327 326 325 325 325 326 326 326 324 320 319 319 319 318 318 318 319 318 319 316 316 318 318 316 315 315 316 315 316 316 316
299 299 298 296 292 291 301 311 318 314 313 316 314 314 315 316 316 317 318 320 321 321 321 322 323 325 327 330 329 330 330 330 328 326 325 325 326 326 326 325 321 319 319 318 318 317 317 318 317 316 316 316 314 313 314 314 315 315 314 314 314 315 316
297 298 293 289 289 300 309 315 319 321 320 318 313 311 314 316 317 318 317 320 321 322 323 324 326 327 328 329 329 330 331 331 329 327 326 326 326 325 326 323 319 319 318 317 317 317 321 318 315 315 314 314 313 312 314 315 314 314 314 313 314 315 316
296 295 292 296 302 306 310 311 314 315 310 312 306 301 307 315 317 318 319 320 322 323 324 325 326 328 328 325 324 329 330 330 331 330 329 328 328 328 326 322 320 320 319 318 318 320 317 315 314 313 313 313 313 313 313 313 314 313 313 314 315 319 317
299 298 293 294 292 294 300 307 314 317 317 315 311 310 307 315 319 321 321 320 322 323 325 325 326 326 322 318 319 325 328 329 328 330 329 329 329 328 323 321 320 320 319 319 321 317 314 313 313 313 313 313 313 313 313 312 313 312 313 314 316 319 315
298 296 293 290 294 295 303 309 314 316 316 319 314 303 299 309 320 321 321 320 323 324 324 325 325 320 315 316 320 325 326 325 327 327 328 328 327 323 321 320 318 317 317 318 319 315 313 312 312 313 312 312 313 313 314 312 312 312 312 313 314 316 316
298 295 293 293 296 300 310 309 311 314 318 310 305 295 295 305 321 322 322 321 322 324 326 326 322 317 313 316 321 327 327 327 329 327 326 324 322 320 321 321 320 319 321 318 313 312 311 312 313 312 312 312 315 313 313 311 311 312 313 315 314 313 313
301 302 295 297 301 310 316 317 317 317 312 307 296 293 301 312 322 322 322 322 324 325 325 325 319 317 318 323 326 328 328 327 326 325 325 323 321 320 320 320 324 318 317 314 312 312 312 313 313 313 313 314 315 315 312 310 312 313 313 313 312 312 312
299 294 296 297 298 307 314 319 319 318 311 299 295 302 308 322 322 323 323 323 324 325 325 322 317 319 325 328 327 326 326 324 321 320 320 321 322 322 322 323 320 316 313 311 311 312 312 313 313 313 313 315 314 315 310 310 313 313 312 313 315 313 313
300 297 297 296 294 310 320 319 316 316 306 304 304 316 322 325 323 323 323 324 324 325 321 321 322 325 325 326 325 325 324 321 319 318 320 319 317 318 319 318 318 315 311 311 312 312 313 313 313 313 314 315 316 316 310 313 313 312 313 313 314 312 315
297 296 295 296 302 308 318 318 310 313 314 313 319 323 320 323 324 323 323 323 325 324 322 323 324 325 325 324 323 323 322 321 319 319 319 318 318 318 317 316 316 316 311 312 312 313 313 314 313 313 315 316 317 313 310 313 313 317 317 314 314 314 320
302 300 301 308 314 318 319 320 320 322 324 325 325 325 324 323 323 325 324 323 323 324 324 324 324 324 324 322 323 321 320 319 317 316 316 317 317 316 314 314 318 314 312 312 312 312 312 313 313 314 315 316 320 314 311 315 319 318 316 316 315 316 314
314 314 316 318 316 316 319 322 323 323 323 324 326 326 324 324 325 325 323 324 324 324 325 324 324 324 323 321 321 320 318 317 317 318 317 316 315 314 314 315 315 314 313 313 312 312 312 313 313 318 314 316 320 317 314 320 317 316 316 316 317 317 315
305 302 311 313 314 315 317 319 321 322 323 323 325 325 325 324 324 324 326 325 325 325 325 325 324 323 322 320 319 318 317 316 316 316 315 314 314 314 313 315 318 313 313 312 312 314 313 314 314 316 314 316 318 318 317 318 316 315 317 317 320 320 318
303 305 311 313 314 315 314 314 319 320 320 322 322 324 325 325 326 326 326 326 325 326 324 325 324 322 321 319 317 317 316 316 315 315 314 313 313 313 314 317 315 313 312 312 313 314 314 314 314 316 314 316 318 318 318 318 315 317 323 321 317 315 314
309 311 312 312 315 315 314 315 316 318 321 322 323 324 325 325 325 325 326 327 326 325 325 325 324 321 320 319 318 316 316 315 315 314 313 313 312 312 314 315 316 312 313 314 315 315 315 314 314 315 314 315 315 314 315 315 313 318 320 323 325 314 311
305 307 309 312 310 310 313 315 316 319 321 323 322 323 324 324 324 324 323 324 326 326 326 325 324 321 319 318 318 316 316 315 315 313 313 312 311 312 314 316 314 315 317 315 315 316 315 313 313 315 314 314 315 315 314 314 314 317 324 320 310 308 312
306 310 313 313 312 311 311 313 316 320 323 324 323 322 323 324 324 324 323 321 322 324 325 326 323 321 319 318 317 316 316 315 315 313 312 311 311 312 314 313 311 314 315 317 316 317 315 314 314 317 315 314 313 314 313 313 314 316 320 319 318 314 319
314 314 314 314 313 312 313 313 315 320 322 323 322 322 324 324 323 323 323 323 322 320 321 321 322 320 318 317 317 316 315 314 313 312 312 312 312 314 314 313 313 315 315 317 316 317 314 315 315 316 316 315 313 314 313 313 313 314 316 318 316 316 315
315 316 314 313 312 311 311 312 314 319 324 324 323 322 323 322 321 322 321 321 322 319 317 316 316 318 317 316 316 315 314 313 314 313 316 317 314 314 313 312 313 315 316 317 316 316 314 315 314 315 314 315 314 314 314 313 313 313 313 316 314 313 313
Wind_Speed
5 6 5 2 5 2 2 2 3 6 3 6 5 2 1 3 4 2 0 7 4 7 2 4 4 6 5 4 6 9 9 10 10 9 9 9 8 9 8 9 10 11 11 11 11 10 11 11 9 9 8 9 9 8 8 9 8 8 8 7 6 5 6
5 2 4 2 4 4 5 1 7 1 2 4 3 3 2 3 3 3 1 4 7 3 4 2 3 4 3 5 6 8 10 10 9 8 8 9 9 9 8 8 9 11 11 11 10 10 11 10 9 9 9 7 7 7 9 10 9 9 8 7 5 5 6
6 3 3 2 3 0 7 6 4 2 2 2 3 3 1 1 2 2 2 2 5 6 6 3 2 4 6 6 7 9 9 9 9 9 9 9 9 9 9 9 8 10 10 9 11 11 9 8 7 7 7 7 6 6 8 9 10 8 7 5 4 4 5
0 1 2 4 4 2 3 3 2 0 2 2 3 4 3 4 3 1 4 2 5 4 4 6 6 8 7 8 8 9 9 9 8 9 10 10 9 9 8 9 8 9 11 11 12 11 10 9 8 7 8 7 8 8 9 9 8 7 7 6 5 6 4
2 1 1 6 6 4 1 1 2 1 0 2 5 2 1 3 5 4 1 3 6 6 5 5 8 9 8 8 8 7 8 9 9 8 8 8 8 8 8 8 9 11 11 9 8 10 11 9 8 7 7 7 8 8 10 10 9 7 6 5 6 5 5
4 7 5 6 6 5 5 7 6 7 5 3 2 3 1 2 5 4 4 6 7 7 1 3 3 2 6 7 9 9 9 9 8 7 8 8 6 7 8 8 8 9 12 11 10 9 9 7 9 9 7 8 9 10 9 9 7 6 6 4 5 5 5
6 9 6 1 3 2 2 4 3 5 3 5 4 4 5 3 1 3 3 1 4 1 1 2 3 5 7 7 9 8 8 8 6 6 7 7 7 7 8 8 8 8 10 10 10 11 9 8 8 10 8 9 9 10 10 8 7 5 4 5 5 5 5
8 7 4 2 3 3 1 1 2 4 4 6 8 6 7 7 2 2 2 1 6 2 1 3 3 5 7 6 6 7 7 6 6 7 7 8 7 7 8 8 9 8 11 11 11 9 7 7 10 9 8 9 9 8 7 7 7 6 5 5 5 5 6
6 6 4 3 3 3 1 1 1 1 2 6 3 6 2 5 6 5 7 3 4 1 3 3 2 6 7 7 7 6 6 6 6 7 7 7 8 7 9 10 9 11 11 12 10 9 7 7 8 9 9 9 9 9 8 7 6 5 4 4 5 6 6
1 1 1 1 1 4 1 1 0 1 4 11 6 3 0 3 2 4 2 4 5 2 1 5 6 7 8 7 9 8 6 7 7 7 9 10 8 9 10 11 10 9 9 10 9 9 9 9 9 9 8 9 8 7 7 6 7 5 5 4 5 6 5
7 4 4 3 1 1 0 1 3 2 1 2 5 5 5 5 5 7 6 3 2 1 6 6 6 8 10 10 9 8 8 8 7 8 10 10 9 9 11 10 9 11 11 11 11 10 10 10 9 8 9 9 8 7 7 6 6 5 5 5 5 6 5
4 5 2 2 2 1 0 1 1 2 2 1 3 6 3 6 11 1 4 3 6 7 9 8 8 8 8 7 8 9 8 8 7 9 11 12 9 10 9 11 10 11 11 11 11 11 10 9 9 9 8 8 8 7 7 6 5 5 4 5 5 5 5
4 1 3 3 2 2 2 3 3 2 2 3 2 1 4 3 4 3 3 8 4 1 4 7 7 8 9 8 9 8 9 9 10 10 11 10 11 11 10 11 10 11 11 10 10 10 10 11 11 9 8 7 6 5 6 5 5 5 5 6 5 5 4
8 9 6 4 5 2 5 6 4 3 5 5 6 5 2 5 2 2 2 4 5 1 3 8 8 8 9 9 8 9 9 11 11 10 11 10 11 11 11 10 10 9 10 11 10 10 10 11 10 8 7 7 6 7 6 5 5 4 5 5 5 4 4
5 8 9 7 2 5 5 4 5 5 4 7 4 3 2 3 5 5 6 5 4 3 2 7 6 9 8 9 11 10 10 12 11 11 11 10 11 11 12 10 10 11 10 10 10 10 10 9 8 8 6 6 6 6 6 5 5 4 4 5 4 4 4
3 4 7 4 5 8 7 4 6 7 6 5 3 2 1 1 2 3 5 3 1 1 6 8 9 10 10 12 11 9 9 11 11 11 10 11 11 11 11 11 11 12 11 10 11 11 9 8 8 7 6 6 6 6 6 6 5 4 4 4 4 4 4
0 1 3 7 6 6 5 2 3 2 1 0 1 1 2 1 5 5 3 3 3 8 8 10 8 10 9 10 11 10 11 10 11 11 11 11 11 11 12 12 11 12 11 11 11 9 8 7 7 7 7 7 6 6 6 5 5 5 5 4 4 3 3
3 2 7 4 3 1 3 2 2 2 0 3 1 0 1 2 2 1 1 2 7 9 9 11 12 12 10 9 7 6 9 11 10 11 10 11 11 11 11 11 12 11 9 8 9 10 9 7 7 6 6 6 5 4 5 4 6 5 6 4 4 2 2
3 2 5 4 1 4 3 6 5 4 2 6 7 3 1 1 2 5 6 7 9 5 2 5 8 8 9 7 9 8 8 8 8 11 11 11 11 10 11 10 11 11 11 10 9 8 7 7 7 7 5 6 5 5 5 6 4 5 5 6 4 3 3
3 2 2 2 3 4 6 4 3 2 7 6 7 4 1 2 5 7 6 7 6 6 8 8 7 10 11 9 6 7 8 8 9 10 10 10 11 11 11 12 12 11 12 13 12 9 6 7 6 6 6 5 6 4 3 6 4 4 5 5 4 3 3
5 4 3 3 4 4 1 1 2 5 3 5 2 1 3 4 4 5 9 9 8 9 9 10 10 10 10 9 6 5 7 8 9 11 10 11 11 11 11 13 12 12 12 11 9 7 7 7 7 6 6 5 6 6 5 4 5 4 4 4 3 2 3
5 6 3 2 3 2 7 7 4 1 1 3 2 3 2 1 3 5 11 11 12 11 11 11 11 9 10 6 3 5 9 11 11 9 11 11 11 11 11 11 12 12 10 9 8 8 8 7 7 6 6 7 7 6 5 4 5 4 3 4 3 2 2
4 3 5 3 5 7 6 7 5 2 2 4 3 3 4 3 8 7 9 12 10 13 14 12 10 7 6 5 4 6 9 10 11 11 11 11 11 11 12 13 13 11 10 9 8 8 8 8 6 6 7 7 7 6 4 4 4 4 4 3 3 3 4
2 7 4 4 4 1 1 4 3 2 4 4 3 2 2 4 9 9 10 13 12 10 10 12 8 9 7 7 7 9 9 10 11 11 11 12 12 11 12 11 12 10 9 9 9 9 9 8 7 7 7 7 7 5 4 4 4 4 4 4 4 4 3
3 6 0 2 3 3 3 4 2 3 3 4 3 3 3 5 9 10 10 11 12 12 12 10 8 1 1 4 12 11 11 11 9 9 10 12 13 13 15 13 11 8 8 9 10 9 7 8 7 6 6 7 6 5 5 4 5 5 4 3 3 3 2
6 4 5 5 4 6 3 0 5 3 2 2 2 4 1 10 10 9 9 11 10 11 12 5 3 5 7 13 11 12 11 12 11 11 12 11 9 9 10 13 10 8 8 7 6 6 7 8 8 6 6 6 5 5 5 5 5 4 4 4 3 3 3
2 3 4 1 1 0 3 7 3 1 2 3 3 2 3 5 10 11 8 10 9 9 7 6 9 10 10 12 12 12 12 12 12 12 12 12 12 12 12 9 8 9 9 8 8 8 6 7 7 6 7 7 5 4 5 6 4 4 4 4 4 4 3
4 2 3 2 2 1 2 1 2 3 2 3 8 6 6 4 8 9 8 4 8 8 11 11 11 12 13 10 11 12 11 11 11 12 11 11 10 10 9 9 9 9 8 7 7 6 6 6 7 6 8 7 5 5 6 5 3 3 3 4 3 3 2
1 1 1 2 3 3 2 1 0 0 0 3 3 5 11 11 5 5 9 9 7 9 11 12 13 11 10 11 12 12 12 12 12 12 12 12 12 11 10 10 8 9 9 9 7 6 5 6 6 6 5 8 5 6 5 3 4 4 4 4 3 3 4
1 1 0 2 3 3 4 5 4 3 3 3 6 10 9 4 8 9 11 10 11 10 11 14 10 12 12 12 12 11 11 11 10 10 10 9 8 9 8 7 8 7 8 8 8 8 5 5 6 5 5 6 7 5 3 4 4 5 4 4 3 4 4
3 1 6 6 3 3 4 6 6 7 4 3 2 6 8 8 8 8 8 13 12 12 11 13 13 12 12 12 11 11 11 11 12 12 11 10 11 12 11 8 8 8 8 8 8 8 8 5 5 5 6 5 6 4 4 5 5 5 4 4 3 2 3
3 2 2 2 2 1 3 5 4 4 5 5 5 4 6 8 7 10 11 11 11 10 10 12 15 13 11 13 12 10 10 10 10 10 10 10 8 6 8 8 9 8 8 9 8 8 8 7 6 5 5 6 5 4 4 5 5 4 4 3 3 3 4
1 1 1 2 3 7 6 5 3 1 4 8 7 8 10 11 13 10 7 8 12 10 11 11 14 13 10 12 13 12 9 9 9 9 9 8 9 9 9 7 8 9 8 8 8 8 7 6 6 5 6 5 4 5 5 5 5 5 3 2 2 3 3
0 4 4 3 5 1 1 1 0 3 3 9 10 9 11 12 13 11 12 7 4 9 14 14 13 14 11 10 12 13 11 11 10 8 8 8 8 7 7 7 8 8 8 9 8 7 5 5 6 6 5 5 4 4 5 5 5 4 3 3 2 3 3
1 6 6 3 2 2 2 3 2 3 4 10 12 10 11 9 10 13 14 11 9 8 7 10 13 13 13 11 10 11 10 10 11 11 11 9 7 8 8 8 6 8 7 7 7 6 5 5 6 5 5 5 4 5 5 5 6 5 5 4 3 3 2
1 1 6 5 2 4 3 3 4 4 2 6 9 6 8 11 12 11 13 15 15 9 9 6 9 14 12 12 12 12 10 9 8 8 9 10 9 9 8 9 9 7 7 6 7 8 6 6 6 5 5 4 4 5 5 5 4 4 5 4 4 4 4
2 2 3 2 4 5 5 5 5 4 3 5 11 10 11 10 7 9 12 9 12 15 12 9 6 8 14 11 11 12 12 10 10 10 8 6 7 8 8 7 8 9 9 8 7 6 6 6 5 5 5 5 4 5 5 5 5 5 5 4 4 4 4
Wind_Direction
186 188 151 219 129 187 246 107 204 220 166 114 82 71 14 118 45 232 169 318 291 293 332 75 37 52 42 71 103 113 127 128 135 146 155 160 158 161 158 162 154 143 132 135 136 129 134 138 140 142 141 138 134 124 110 101 90 81 80 78 81 71 78
265 219 180 162 208 146 81 290 242 147 100 117 130 239 345 57 191 256 45 245 303 22 274 21 48 69 117 115 109 120 125 138 146 154 161 162 166 166 160 148 147 131 133 135 128 136 136 138 144 137 131 124 120 121 120 112 104 97 91 93 86 85 91
281 350 117 347 300 310 180 210 174 131 271 289 326 91 292 270 282 275 319 281 263 190 254 347 280 176 189 160 141 140 148 157 158 157 160 163 159 154 157 154 136 118 128 139 135 136 125 113 110 114 107 105 109 105 100 103 105 106 105 96 92 81 87
322 17 110 227 270 340 33 81 55 200 114 156 134 196 175 123 237 48 292 25 257 212 216 191 218 204 190 165 165 181 171 171 163 162 167 166 163 160 151 145 119 122 143 139 135 126 112 116 119 119 112 111 107 103 102 98 94 100 108 111 108 92 84
343 115 161 204 174 178 28 78 298 337 359 216 107 35 82 197 169 178 188 322 275 258 213 192 215 197 183 172 169 174 181 182 173 165 158 157 156 145 142 139 120 136 116 114 117 114 124 127 133 121 111 107 103 102 105 108 115 119 108 107 100 103 100
267 243 245 199 183 169 164 162 199 174 122 141 178 250 19 77 106 193 143 238 268 268 173 227 276 197 147 171 168 174 180 175 169 154 144 144 131 121 136 123 108 109 109 126 115 113 117 133 125 113 105 106 102 105 112 115 109 113 117 112 110 110 95
226 237 252 165 155 119 154 156 230 177 157 114 123 186 231 64 59 103 144 112 277 242 294 303 248 160 165 164 167 168 168 154 140 126 128 117 107 123 115 97 102 105 115 112 112 116 133 123 112 114 116 110 111 112 113 118 125 127 122 118 116 112 105
291 305 290 167 190 146 79 22 83 117 179 190 180 177 175 134 161 69 11 213 252 281 352 318 229 171 151 144 154 157 150 133 121 119 120 120 112 107 94 85 95 109 112 115 114 108 99 109 117 110 107 109 110 111 115 121 126 135 131 126 118 108 99
335 342 345 14 341 56 85 245 265 151 108 83 122 100 54 100 211 161 128 226 280 285 19 31 67 118 126 130 111 124 139 116 112 116 110 97 81 69 89 94 113 136 125 114 115 113 106 93 95 109 113 113 116 123 132 136 136 138 127 124 112 100 102
142 135 3 279 284 213 241 173 7 120 145 139 134 112 162 107 224 124 138 247 255 309 50 90 88 98 95 106 123 118 121 127 117 116 99 79 92 109 108 112 117 85 80 99 105 108 108 107 110 111 111 116 127 133 133 138 137 131 127 112 111 112 102
187 206 212 254 123 48 175 318 68 1 37 337 94 98 103 189 177 186 230 184 188 236 167 148 140 136 133 135 139 133 134 131 109 104 107 117 127 121 115 110 101 96 101 110 110 109 109 113 111 107 112 120 124 133 138 137 133 128 129 121 110 104 97
204 210 207 238 128 151 62 47 341 19 52 274 119 133 206 156 109 280 264 182 158 208 170 167 153 145 136 141 138 145 148 141 128 118 117 124 119 111 110 111 109 112 115 111 109 110 111 113 118 124 126 131 138 145 138 128 125 127 128 110 106 108 121
340 51 268 264 83 89 116 84 26 21 336 58 106 46 114 103 123 190 234 173 161 354 160 157 159 157 155 148 144 146 148 125 119 123 121 121 118 111 110 109 111 116 120 116 113 115 116 117 117 118 123 128 131 123 120 126 129 133 126 116 118 124 121
22 360 12 324 125 104 46 25 28 5 75 81 107 115 81 89 91 258 190 109 80 290 139 162 159 146 143 141 141 143 135 131 128 125 126 120 119 115 115 112 112 115 117 119 121 118 119 121 126 129 132 130 132 128 126 124 121 127 121 122 125 124 119
352 360 7 19 19 99 87 29 42 39 53 65 44 75 25 78 60 34 87 90 49 321 139 122 114 115 128 139 152 149 134 130 128 124 129 123 124 123 122 121 120 119 121 121 120 121 126 132 132 130 129 123 118 120 128 129 130 137 134 134 130 133 152
338 349 19 355 49 65 81 45 19 22 26 50 349 43 338 81 124 104 82 70 231 150 117 113 121 134 146 152 150 139 134 134 132 132 129 129 127 128 131 127 125 126 129 132 132 134 135 136 137 135 128 124 125 137 140 132 129 129 129 132 146 163 160
287 293 36 355 6 47 26 339 315 323 75 141 148 341 32 107 150 104 108 235 199 154 147 130 144 147 148 151 153 141 141 141 139 138 138 135 133 133 136 137 133 137 141 143 134 134 140 145 139 137 134 133 143 146 137 135 121 113 114 121 123 133 149
215 322 349 2 53 55 223 233 248 193 315 155 122 72 8 335 63 199 189 164 142 149 159 152 163 161 160 152 140 133 144 146 144 137 135 137 136 135 134 136 134 136 136 135 137 145 152 146 129 131 134 136 138 131 122 111 115 122 120 106 107 96 76
176 355 19 41 211 234 248 297 287 219 175 114 114 102 106 324 47 72 85 127 149 151 111 124 125 117 122 122 136 134 145 143 132 131 135 138 138 132 133 128 134 140 140 135 135 149 147 128 120 110 108 115 114 101 112 109 120 125 118 113 94 113 107
71 58 41 141 239 247 287 306 346 109 104 113 93 61 347 233 205 169 129 143 120 112 111 108 111 119 116 98 58 119 137 136 132 134 139 138 137 139 143 136 142 142 145 147 155 159 134 117 117 126 134 133 114 105 90 123 125 115 110 97 105 112 109
143 170 144 222 294 325 297 349 240 184 152 182 162 183 250 212 181 170 137 130 119 109 115 115 115 115 108 98 64 56 114 121 130 132 129 133 134 138 140 143 145 148 148 147 150 131 121 123 126 137 137 124 116 113 113 112 115 109 103 118 150 158 161
125 134 47 6 20 278 269 236 267 203 164 147 174 108 273 225 160 159 143 141 133 124 124 125 126 120 103 115 109 100 105 105 102 105 116 124 131 132 131 134 138 144 147 144 134 125 126 130 140 140 138 128 123 121 123 120 119 118 131 175 190 147 171
83 73 130 196 166 242 210 226 225 235 186 131 131 59 301 254 156 161 146 138 144 142 141 138 140 123 144 171 142 138 118 113 112 119 126 129 132 138 139 139 142 143 144 138 123 117 125 130 150 142 135 130 125 132 140 144 142 152 190 203 204 197 217
165 139 124 211 205 174 354 243 267 226 143 104 62 37 288 231 165 152 153 147 149 146 144 145 153 153 158 188 169 145 138 133 132 142 137 132 133 134 130 129 134 138 129 114 116 134 145 151 151 142 135 134 136 140 160 145 158 185 201 209 212 212 229
140 117 249 326 301 268 249 241 223 158 132 76 86 171 244 180 155 157 156 154 149 148 148 164 158 194 177 130 127 130 124 120 114 116 127 137 138 137 142 139 145 139 137 139 149 156 150 147 144 144 142 135 141 147 154 160 186 206 206 209 196 186 160
144 178 123 205 234 237 178 310 160 188 94 87 210 239 231 149 148 147 147 146 158 157 154 131 65 109 106 115 117 119 123 119 117 121 124 124 120 131 135 141 138 134 129 129 125 120 137 144 147 149 148 143 146 153 150 185 214 207 175 195 171 148 148
63 47 77 26 128 247 147 135 74 74 111 223 208 133 50 131 137 135 142 147 149 141 110 93 115 113 113 122 123 124 124 122 127 132 136 142 144 145 141 135 138 134 131 140 148 147 147 147 151 158 147 146 154 157 169 211 212 181 190 172 166 158 159
137 118 134 191 215 231 299 77 162 227 200 179 157 130 98 104 128 132 126 137 145 138 125 126 123 126 123 112 115 121 127 129 130 135 135 135 137 135 133 136 141 132 134 139 140 142 143 151 155 160 152 151 159 159 205 216 174 181 160 152 146 168 201
119 187 213 252 246 244 277 145 196 252 12 124 144 120 139 139 132 126 126 131 122 126 125 125 130 131 132 131 140 139 142 140 141 143 145 146 145 142 138 142 141 137 142 146 141 140 152 158 167 164 166 152 165 179 222 185 178 159 158 154 177 206 235
251 170 146 268 4 354 12 52 72 85 75 65 112 121 118 122 137 149 141 136 129 132 132 125 136 137 140 131 137 133 134 133 133 130 129 126 122 120 123 129 137 132 130 133 142 148 167 173 169 171 177 161 162 204 199 181 160 150 147 170 199 224 240
66 18 336 16 335 343 20 59 50 51 42 56 84 119 121 129 123 112 131 138 141 142 141 133 136 134 138 132 133 134 132 138 143 146 146 146 147 147 146 148 132 130 133 140 150 156 167 189 181 184 176 187 188 188 183 177 152 152 158 180 205 226 247
104 198 265 299 267 168 78 65 73 87 78 60 46 67 105 109 109 124 129 122 122 132 128 137 135 137 140 137 139 140 142 142 145 146 149 145 138 136 139 144 141 138 145 153 160 163 174 183 188 183 186 198 210 203 181 163 151 157 164 175 199 232 251
311 317 303 295 24 33 17 22 44 25 133 110 92 99 105 109 110 111 111 135 144 140 135 137 134 135 145 145 142 139 138 141 147 152 151 154 150 144 144 149 147 153 157 160 167 170 178 179 177 185 197 212 215 186 180 161 154 155 175 211 183 230 276
15 184 204 180 100 230 247 279 177 134 149 117 113 110 111 119 122 127 120 98 101 131 141 144 141 138 142 146 143 144 152 155 153 149 152 151 145 148 146 147 154 154 163 161 168 179 179 172 176 185 201 217 216 185 172 162 155 159 167 135 124 249 234
205 229 212 167 140 129 217 178 122 150 161 132 129 136 131 130 134 135 127 121 113 126 134 145 140 142 147 152 148 141 150 159 163 162 155 149 151 153 150 144 155 162 168 171 166 179 181 177 181 187 203 217 200 180 171 167 166 172 159 164 206 255 239
295 237 154 156 147 159 157 148 129 137 160 125 111 115 130 138 144 143 138 142 138 140 139 149 153 147 146 149 154 153 153 151 152 162 167 162 158 154 159 162 163 161 163 171 179 189 182 182 185 186 204 225 206 183 173 172 170 156 169 175 200 232 238
147 176 136 125 105 82 87 112 102 105 109 144 134 144 141 137 137 141 134 137 144 143 146 148 153 156 147 153 154 154 156 164 164 161 156 146 149 154 163 160 168 172 177 183 190 184 177 187 185 189 202 230 213 196 181 172 163 164 181 189 201 227 237